| time (UTC) | temp F | wind direction | speed knots | gust knots | rain 1hr in | rain 24hr in | rain mn in | humidity % | barometer mb |
| 20260506124250 | 56 | 286 | 2.6 | 6.1 | 0.02 | 0.39 | 0.18 | 96 | 1012.6 |
| 20260506124217 | 56 | 236 | 2.6 | 8.7 | 0.02 | 0.39 | 0.18 | 96 | 1012.6 |
| 20260506124051 | 56 | 244 | 2.6 | 8.7 | 0.02 | 0.39 | 0.18 | 96 | 1012.6 |
| 20260506123539 | 56 | 235 | 2.6 | 9.6 | 0.02 | 0.39 | 0.18 | 96 | 1012.6 |
| 20260506123506 | 56 | 242 | 2.6 | 9.6 | 0.02 | 0.39 | 0.18 | 96 | 1012.6 |
| 20260506123315 | 56 | 254 | 4.3 | 9.6 | 0.02 | 0.39 | 0.18 | 96 | 1012.6 |
| 20260506123144 | 56 | 250 | 3.5 | 9.6 | 0.02 | 0.39 | 0.18 | 96 | 1012.6 |
| 20260506123107 | 56 | 252 | 3.5 | 9.6 | 0.02 | 0.39 | 0.18 | 96 | 1012.7 |
| 20260506122950 | 56 | 273 | 4.3 | 9.6 | 0.02 | 0.39 | 0.18 | 96 | 1012.7 |
| 20260506122754 | 56 | 306 | 6.1 | 9.6 | 0.02 | 0.39 | 0.18 | 96 | 1012.7 |
| 20260506122641 | 56 | 281 | 5.2 | 8.7 | 0.02 | 0.39 | 0.18 | 96 | 1012.7 |
| 20260506122611 | 56 | 273 | 4.3 | 7.8 | 0.02 | 0.39 | 0.18 | 95 | 1012.8 |
| 20260506122413 | 56 | 254 | 0.9 | 6.1 | 0.02 | 0.39 | 0.18 | 95 | 1012.6 |
| 20260506122247 | 56 | 239 | 0.9 | 5.2 | 0.02 | 0.39 | 0.18 | 95 | 1012.4 |
| 20260506122214 | 56 | 190 | 0.9 | 5.2 | 0.02 | 0.39 | 0.17 | 96 | 1012.4 |
| 20260506122124 | 56 | 190 | 0.9 | 5.2 | 0.02 | 0.39 | 0.17 | 96 | 1012.5 |
| 20260506121932 | 56 | 201 | 1.7 | 5.2 | 0.02 | 0.39 | 0.17 | 96 | 1012.5 |
| 20260506121803 | 56 | 279 | 0.0 | 5.2 | 0.02 | 0.39 | 0.17 | 95 | 1012.5 |
| 20260506121439 | 56 | 248 | 2.6 | 7.0 | 0.02 | 0.39 | 0.17 | 95 | 1012.6 |
| 20260506120417 | 56 | 237 | 2.6 | 7.0 | 0.02 | 0.39 | 0.17 | 95 | 1012.6 |
| 20260506120258 | 56 | 267 | 5.2 | 7.0 | 0.02 | 0.39 | 0.17 | 95 | 1012.5 |
| 20260506120113 | 56 | 225 | 3.5 | 9.6 | 0.02 | 0.39 | 0.17 | 95 | 1012.6 |
| 20260506115945 | 56 | 273 | 2.6 | 9.6 | 0.02 | 0.39 | 0.17 | 95 | 1012.7 |
| 20260506115849 | 56 | 252 | 2.6 | 9.6 | 0.02 | 0.39 | 0.17 | 95 | 1012.7 |
| 20260506115749 | 57 | 228 | 3.5 | 9.6 | 0.02 | 0.39 | 0.17 | 95 | 1012.7 |
| 20260506115553 | 57 | 238 | 2.6 | 9.6 | 0.02 | 0.39 | 0.17 | 95 | 1012.6 |
| 20260506115421 | 57 | 246 | 5.2 | 9.6 | 0.02 | 0.39 | 0.17 | 95 | 1012.7 |
| 20260506115218 | 57 | 286 | 2.6 | 7.8 | 0.02 | 0.39 | 0.17 | 96 | 1012.7 |
| 20260506115030 | 56 | 281 | 4.3 | 7.8 | 0.02 | 0.39 | 0.17 | 96 | 1012.6 |
| 20260506114932 | 56 | 243 | 4.3 | 7.8 | 0.02 | 0.39 | 0.17 | 96 | 1012.6 |
| 20260506114825 | 56 | 246 | 3.5 | 7.8 | 0.02 | 0.39 | 0.17 | 96 | 1012.6 |
| 20260506114640 | 56 | 248 | 3.5 | 6.1 | 0.02 | 0.39 | 0.17 | 96 | 1012.6 |
| 20260506114450 | 57 | 236 | 2.6 | 5.2 | 0.02 | 0.39 | 0.17 | 97 | 1012.6 |
| 20260506114301 | 57 | 246 | 2.6 | 6.1 | 0.02 | 0.39 | 0.17 | 97 | 1012.5 |
| 20260506114121 | 57 | 224 | 1.7 | 6.1 | 0.02 | 0.39 | 0.17 | 98 | 1012.5 |
| 20260506114031 | 57 | 248 | 1.7 | 6.1 | 0.02 | 0.39 | 0.17 | 98 | 1012.5 |
| 20260506113937 | 57 | 228 | 1.7 | 6.1 | 0.02 | 0.39 | 0.17 | 98 | 1012.6 |
| 20260506113749 | 56 | 251 | 2.6 | 6.1 | 0.02 | 0.39 | 0.17 | 97 | 1012.5 |
| 20260506113600 | 56 | 234 | 3.5 | 6.1 | 0.02 | 0.39 | 0.17 | 97 | 1012.6 |
| 20260506113011 | 56 | 243 | 3.5 | 6.1 | 0.02 | 0.39 | 0.17 | 97 | 1012.6 |
| 20260506112918 | 56 | 266 | 3.5 | 4.3 | 0.02 | 0.39 | 0.17 | 97 | 1012.6 |
| 20260506112411 | 56 | 223 | 2.6 | 3.5 | 0.02 | 0.39 | 0.17 | 98 | 1012.8 |
| 20260506112232 | 56 | 238 | 2.6 | 6.1 | 0.01 | 0.39 | 0.16 | 98 | 1012.7 |
| 20260506111827 | 56 | 221 | 2.6 | 6.1 | 0.01 | 0.39 | 0.16 | 98 | 1012.7 |
| 20260506111658 | 55 | 232 | 2.6 | 6.1 | 0.02 | 0.39 | 0.16 | 98 | 1012.7 |
| 20260506111608 | 55 | 229 | 1.7 | 6.1 | 0.02 | 0.39 | 0.16 | 97 | 1012.7 |
| 20260506111505 | 55 | 234 | 3.5 | 6.1 | 0.02 | 0.39 | 0.16 | 98 | 1012.7 |
| 20260506111340 | 56 | 240 | 2.6 | 6.1 | 0.02 | 0.39 | 0.16 | 98 | 1012.7 |
| 20260506111148 | 55 | 237 | 2.6 | 6.1 | 0.02 | 0.39 | 0.16 | 98 | 1012.7 |
| 20260506111005 | 55 | 216 | 4.3 | 7.0 | 0.02 | 0.39 | 0.16 | 98 | 1012.7 |
| 20260506110825 | 55 | 236 | 3.5 | 7.0 | 0.02 | 0.39 | 0.16 | 98 | 1012.7 |
| 20260506110730 | 55 | 238 | 2.6 | 7.0 | 0.02 | 0.39 | 0.16 | 98 | 1012.6 |
| 20260506110628 | 55 | 226 | 2.6 | 7.0 | 0.02 | 0.39 | 0.16 | 98 | 1012.7 |
| 20260506110445 | 55 | 252 | 3.5 | 7.0 | 0.02 | 0.39 | 0.16 | 98 | 1012.6 |
| 20260506110255 | 55 | 247 | 1.7 | 7.0 | 0.02 | 0.39 | 0.16 | 98 | 1012.6 |
| 20260506110105 | 55 | 233 | 3.5 | 7.0 | 0.02 | 0.39 | 0.16 | 98 | 1012.7 |
| 20260506105937 | 55 | 242 | 1.7 | 7.0 | 0.02 | 0.39 | 0.16 | 98 | 1012.7 |
| 20260506105843 | 55 | 234 | 3.5 | 7.0 | 0.02 | 0.39 | 0.16 | 97 | 1012.7 |
| 20260506105356 | 55 | 237 | 3.5 | 7.0 | 0.02 | 0.40 | 0.16 | 97 | 1012.6 |
| 20260506104250 | 54 | 231 | 2.6 | 4.3 | 0.02 | 0.39 | 0.15 | 97 | 1012.7 |
| 20260506104214 | 54 | 226 | 2.6 | 4.3 | 0.02 | 0.39 | 0.15 | 97 | 1012.7 |
| 20260506104147 | 54 | 226 | 2.6 | 4.3 | 0.02 | 0.39 | 0.15 | 97 | 1012.6 |
| 20260506104012 | 54 | 257 | 2.6 | 4.3 | 0.02 | 0.39 | 0.15 | 97 | 1012.7 |
| 20260506103832 | 54 | 225 | 2.6 | 5.2 | 0.02 | 0.39 | 0.15 | 97 | 1012.7 |
| 20260506103713 | 55 | 225 | 3.5 | 5.2 | 0.02 | 0.39 | 0.15 | 97 | 1012.7 |
| 20260506103633 | 55 | 225 | 3.5 | 7.8 | 0.02 | 0.39 | 0.15 | 97 | 1012.7 |
| 20260506103609 | 55 | 225 | 3.5 | 7.8 | 0.02 | 0.39 | 0.15 | 97 | 1012.7 |
| 20260506103536 | 55 | 225 | 3.5 | 7.8 | 0.02 | 0.39 | 0.15 | 97 | 1012.7 |
| 20260506103441 | 55 | 236 | 3.5 | 7.8 | 0.02 | 0.40 | 0.15 | 97 | 1012.8 |
| 20260506103334 | 55 | 259 | 5.2 | 7.8 | 0.02 | 0.40 | 0.15 | 97 | 1012.7 |
| 20260506103302 | 55 | 245 | 5.2 | 7.8 | 0.02 | 0.40 | 0.15 | 97 | 1012.8 |
| 20260506103126 | 55 | 269 | 6.1 | 7.8 | 0.02 | 0.40 | 0.15 | 97 | 1012.9 |
| 20260506102936 | 55 | 256 | 1.7 | 6.1 | 0.02 | 0.40 | 0.15 | 97 | 1012.8 |
| 20260506102903 | 55 | 265 | 0.0 | 5.2 | 0.02 | 0.40 | 0.15 | 97 | 1012.7 |
| 20260506102735 | 55 | 307 | 0.9 | 4.3 | 0.02 | 0.40 | 0.15 | 97 | 1012.6 |
| 20260506102311 | 55 | 229 | 1.7 | 5.2 | 0.02 | 0.40 | 0.15 | 97 | 1012.8 |
| 20260506102238 | 55 | 218 | 1.7 | 5.2 | 0.02 | 0.40 | 0.15 | 97 | 1012.7 |
| 20260506102102 | 55 | 221 | 2.6 | 5.2 | 0.02 | 0.40 | 0.15 | 97 | 1012.6 |
| 20260506101930 | 55 | 214 | 2.6 | 5.2 | 0.01 | 0.39 | 0.14 | 97 | 1012.6 |
| 20260506101902 | 55 | 262 | 2.6 | 5.2 | 0.01 | 0.39 | 0.14 | 97 | 1012.6 |
| 20260506101732 | 55 | 238 | 3.5 | 5.2 | 0.01 | 0.39 | 0.14 | 97 | 1012.5 |
| 20260506101553 | 55 | 225 | 2.6 | 5.2 | 0.01 | 0.39 | 0.14 | 97 | 1012.6 |
| 20260506101444 | 55 | 220 | 2.6 | 10.4 | 0.02 | 0.39 | 0.14 | 97 | 1012.5 |
| 20260506101413 | 55 | 221 | 2.6 | 10.4 | 0.02 | 0.39 | 0.14 | 97 | 1012.5 |
| 20260506101223 | 55 | 232 | 3.5 | 10.4 | 0.02 | 0.40 | 0.14 | 97 | 1012.6 |
| 20260506101049 | 55 | 220 | 2.6 | 12.2 | 0.02 | 0.40 | 0.14 | 97 | 1012.6 |
| 20260506101019 | 55 | 229 | 2.6 | 12.2 | 0.02 | 0.40 | 0.14 | 97 | 1012.4 |
| 20260506100843 | 55 | 217 | 2.6 | 12.2 | 0.02 | 0.40 | 0.14 | 97 | 1012.5 |
| 20260506100700 | 55 | 207 | 5.2 | 12.2 | 0.02 | 0.40 | 0.14 | 97 | 1012.5 |
| 20260506100543 | 55 | 272 | 4.3 | 12.2 | 0.02 | 0.40 | 0.14 | 97 | 1012.5 |
| 20260506100104 | 55 | 221 | 6.1 | 12.2 | 0.02 | 0.40 | 0.14 | 97 | 1012.5 |
| 20260506095915 | 55 | 231 | 2.6 | 7.8 | 0.02 | 0.40 | 0.14 | 97 | 1012.4 |
| 20260506095855 | 55 | 234 | 4.3 | 7.8 | 0.02 | 0.40 | 0.14 | 97 | 1012.4 |
| 20260506095709 | 55 | 240 | 4.3 | 7.8 | 0.02 | 0.40 | 0.14 | 97 | 1012.4 |
| 20260506095536 | 55 | 215 | 3.5 | 4.3 | 0.02 | 0.40 | 0.14 | 97 | 1012.4 |
| 20260506095435 | 55 | 225 | 2.6 | 6.1 | 0.02 | 0.40 | 0.14 | 97 | 1012.3 |
| 20260506095349 | 55 | 232 | 2.6 | 6.1 | 0.02 | 0.40 | 0.14 | 97 | 1012.4 |
| 20260506095155 | 55 | 240 | 2.6 | 6.1 | 0.02 | 0.40 | 0.14 | 97 | 1012.3 |
| 20260506094426 | 55 | 232 | 2.6 | 6.1 | 0.01 | 0.40 | 0.13 | 97 | 1012.2 |
| 20260506094240 | 55 | 230 | 3.5 | 6.1 | 0.01 | 0.40 | 0.13 | 97 | 1012.2 |
| 20260506094136 | 55 | 296 | 3.5 | 5.2 | 0.01 | 0.40 | 0.13 | 97 | 1012.3 |
| 20260506094029 | 55 | 249 | 3.5 | 5.2 | 0.01 | 0.40 | 0.13 | 97 | 1012.1 |
| 20260506093855 | 55 | 217 | 2.6 | 7.0 | 0.01 | 0.40 | 0.13 | 97 | 1012.2 |
| 20260506093715 | 55 | 245 | 2.6 | 7.0 | 0.01 | 0.40 | 0.13 | 97 | 1012.1 |
| 20260506093536 | 55 | 211 | 3.5 | 7.0 | 0.01 | 0.40 | 0.13 | 97 | 1012.0 |
| 20260506093405 | 55 | 211 | 2.6 | 7.0 | 0.01 | 0.40 | 0.13 | 97 | 1012.0 |
| 20260506093309 | 55 | 225 | 3.5 | 7.0 | 0.01 | 0.40 | 0.13 | 97 | 1012.0 |
| 20260506093214 | 55 | 206 | 3.5 | 7.0 | 0.01 | 0.40 | 0.13 | 97 | 1012.0 |
| 20260506093025 | 55 | 228 | 3.5 | 7.0 | 0.02 | 0.40 | 0.13 | 97 | 1012.0 |
| 20260506092627 | 55 | 232 | 3.5 | 7.0 | 0.02 | 0.40 | 0.13 | 97 | 1012.0 |
| 20260506092423 | 55 | 234 | 3.5 | 7.0 | 0.02 | 0.40 | 0.13 | 97 | 1012.0 |
| 20260506092246 | 55 | 234 | 3.5 | 7.0 | 0.02 | 0.40 | 0.13 | 97 | 1012.0 |
| 20260506092149 | 55 | 213 | 3.5 | 6.1 | 0.02 | 0.40 | 0.13 | 97 | 1012.0 |
| 20260506092052 | 55 | 254 | 3.5 | 6.1 | 0.02 | 0.40 | 0.13 | 97 | 1012.0 |
| 20260506091919 | 55 | 224 | 2.6 | 6.1 | 0.02 | 0.40 | 0.13 | 97 | 1012.0 |
| 20260506091758 | 55 | 246 | 4.3 | 6.1 | 0.02 | 0.41 | 0.13 | 97 | 1011.9 |
| 20260506091739 | 55 | 256 | 4.3 | 6.1 | 0.02 | 0.41 | 0.13 | 97 | 1011.9 |
| 20260506091614 | 54 | 235 | 1.7 | 6.1 | 0.02 | 0.41 | 0.13 | 97 | 1011.9 |
| 20260506091434 | 54 | 215 | 2.6 | 3.5 | 0.01 | 0.40 | 0.13 | 97 | 1012.0 |
| 20260506091340 | 54 | 221 | 2.6 | 3.5 | 0.01 | 0.40 | 0.13 | 97 | 1012.0 |
| 20260506091240 | 54 | 263 | 1.7 | 3.5 | 0.01 | 0.40 | 0.13 | 97 | 1011.9 |
| 20260506091122 | 54 | 206 | 2.6 | 3.5 | 0.01 | 0.40 | 0.13 | 97 | 1012.0 |
| 20260506090740 | 54 | 229 | 1.7 | 3.5 | 0.01 | 0.40 | 0.13 | 97 | 1011.9 |
| 20260506090552 | 54 | 223 | 1.7 | 3.5 | 0.01 | 0.40 | 0.13 | 97 | 1012.0 |
| 20260506090414 | 54 | 213 | 2.6 | 3.5 | 0.01 | 0.40 | 0.13 | 97 | 1011.9 |
| 20260506090318 | 54 | 234 | 1.7 | 3.5 | 0.01 | 0.40 | 0.13 | 97 | 1011.9 |
| 20260506090216 | 54 | 229 | 1.7 | 3.5 | 0.01 | 0.40 | 0.13 | 97 | 1011.9 |
| 20260506090044 | 54 | 221 | 1.7 | 3.5 | 0.01 | 0.40 | 0.13 | 97 | 1011.9 |
| 20260506085645 | 54 | 271 | 1.7 | 3.5 | 0.01 | 0.40 | 0.13 | 97 | 1011.9 |
| 20260506085455 | 54 | 219 | 1.7 | 3.5 | 0.01 | 0.40 | 0.13 | 97 | 1011.8 |
| 20260506085320 | 54 | 198 | 2.6 | 3.5 | 0.01 | 0.41 | 0.13 | 97 | 1011.8 |
| 20260506085220 | 54 | 230 | 1.7 | 3.5 | 0.01 | 0.41 | 0.13 | 97 | 1011.9 |
| 20260506084342 | 54 | 237 | 1.7 | 4.3 | 0.01 | 0.41 | 0.13 | 97 | 1011.9 |
| 20260506084149 | 54 | 230 | 1.7 | 4.3 | 0.01 | 0.41 | 0.13 | 97 | 1011.8 |
| 20260506084011 | 54 | 198 | 2.6 | 4.3 | 0.01 | 0.41 | 0.13 | 97 | 1011.8 |
| 20260506083915 | 54 | 223 | 1.7 | 4.3 | 0.01 | 0.41 | 0.13 | 97 | 1011.8 |
| 20260506083424 | 54 | 234 | 1.7 | 4.3 | 0.01 | 0.41 | 0.13 | 97 | 1011.8 |
| 20260506083239 | 54 | 220 | 1.7 | 5.2 | 0.02 | 0.41 | 0.13 | 97 | 1011.9 |
| 20260506083049 | 54 | 240 | 1.7 | 5.2 | 0.02 | 0.41 | 0.13 | 97 | 1011.8 |
| 20260506082911 | 54 | 241 | 2.6 | 5.2 | 0.02 | 0.41 | 0.13 | 97 | 1011.9 |
| 20260506082110 | 54 | 205 | 3.5 | 5.2 | 0.01 | 0.41 | 0.12 | 97 | 1011.9 |
| 20260506081920 | 54 | 217 | 2.6 | 5.2 | 0.01 | 0.41 | 0.12 | 97 | 1011.9 |
| 20260506081724 | 54 | 200 | 2.6 | 5.2 | 0.01 | 0.41 | 0.12 | 97 | 1011.9 |
| 20260506080951 | 54 | 261 | 1.7 | 5.2 | 0.01 | 0.41 | 0.12 | 97 | 1011.9 |
| 20260506080814 | 54 | 217 | 2.6 | 5.2 | 0.01 | 0.41 | 0.12 | 98 | 1011.9 |
| 20260506080628 | 54 | 167 | 2.6 | 5.2 | 0.01 | 0.41 | 0.12 | 98 | 1011.9 |
| 20260506080442 | 54 | 230 | 2.6 | 5.2 | 0.01 | 0.41 | 0.12 | 98 | 1011.8 |
| 20260506080307 | 54 | 242 | 1.7 | 5.2 | 0.01 | 0.41 | 0.12 | 98 | 1011.9 |
| 20260506080211 | 54 | 244 | 2.6 | 5.2 | 0.01 | 0.41 | 0.12 | 98 | 1011.8 |
| 20260506080105 | 54 | 209 | 2.6 | 5.2 | 0.01 | 0.41 | 0.12 | 98 | 1011.9 |
| 20260506073521 | 53 | 215 | 1.7 | 3.5 | 0.01 | 0.42 | 0.12 | 98 | 1011.9 |
| 20260506073320 | 53 | 249 | 1.7 | 3.5 | 0.01 | 0.42 | 0.12 | 98 | 1011.9 |
| 20260506073143 | 53 | 220 | 0.9 | 3.5 | 0.01 | 0.43 | 0.12 | 98 | 1011.9 |
| 20260506072736 | 53 | 225 | 0.9 | 3.5 | 0.01 | 0.43 | 0.12 | 98 | 1012.0 |
| 20260506072622 | 53 | 225 | 0.9 | 3.5 | 0.01 | 0.43 | 0.12 | 98 | 1012.0 |
| 20260506072443 | 53 | 301 | 0.9 | 3.5 | 0.01 | 0.42 | 0.12 | 98 | 1012.0 |
| 20260506072255 | 53 | 206 | 0.9 | 3.5 | 0.01 | 0.42 | 0.11 | 98 | 1011.9 |
| 20260506072117 | 53 | 216 | 0.0 | 2.6 | 0.01 | 0.42 | 0.11 | 98 | 1011.9 |
| 20260506072035 | 53 | 215 | 0.0 | 2.6 | 0.01 | 0.42 | 0.11 | 98 | 1011.9 |
| 20260506071930 | 53 | 198 | 0.0 | 2.6 | 0.01 | 0.42 | 0.11 | 98 | 1011.9 |
| 20260506071801 | 53 | 231 | 0.9 | 2.6 | 0.01 | 0.42 | 0.11 | 98 | 1011.9 |
| 20260506071627 | 53 | 252 | 0.9 | 2.6 | 0.01 | 0.42 | 0.11 | 98 | 1011.8 |
| 20260506071458 | 53 | 194 | 1.7 | 3.5 | 0.01 | 0.42 | 0.11 | 98 | 1011.8 |
| 20260506071015 | 53 | 308 | 0.0 | 3.5 | 0.01 | 0.42 | 0.11 | 98 | 1011.8 |
| 20260506070923 | 53 | 206 | 0.0 | 3.5 | 0.01 | 0.43 | 0.11 | 98 | 1011.8 |
| 20260506070824 | 53 | 206 | 1.7 | 3.5 | 0.01 | 0.43 | 0.11 | 98 | 1011.9 |
| 20260506070645 | 53 | 152 | 0.9 | 3.5 | 0.01 | 0.43 | 0.11 | 98 | 1011.7 |
| 20260506062342 | 52 | 201 | 0.0 | 1.7 | 0.01 | 0.43 | 0.10 | 98 | 1011.7 |
| 20260506061942 | 51 | 205 | 0.0 | 1.7 | 0.01 | 0.43 | 0.10 | 98 | 1011.8 |
| 20260506061843 | 51 | 191 | 0.9 | 1.7 | 0.01 | 0.43 | 0.10 | 98 | 1011.8 |
| 20260506061334 | 51 | 150 | 0.0 | 1.7 | 0.01 | 0.43 | 0.10 | 98 | 1011.7 |
| 20260506061152 | 51 | 193 | 0.9 | 1.7 | 0.01 | 0.43 | 0.10 | 98 | 1011.7 |
| 20260506060755 | 51 | 193 | 0.9 | 2.6 | 0.01 | 0.43 | 0.10 | 98 | 1011.7 |
| 20260506060712 | 51 | 193 | 0.0 | 2.6 | 0.01 | 0.43 | 0.10 | 98 | 1011.7 |
| 20260506060552 | 51 | 227 | 0.9 | 2.6 | 0.01 | 0.43 | 0.10 | 98 | 1011.7 |
| 20260506060420 | 51 | 216 | 0.9 | 2.6 | 0.01 | 0.43 | 0.10 | 98 | 1011.8 |
| 20260506051307 | 51 | 185 | 0.9 | 1.7 | 0.01 | 0.43 | 0.09 | 98 | 1011.3 |
| 20260506051238 | 51 | 182 | 0.9 | 1.7 | 0.01 | 0.43 | 0.09 | 98 | 1011.4 |
| 20260506051139 | 51 | 225 | 0.9 | 1.7 | 0.01 | 0.43 | 0.09 | 97 | 1011.3 |
| 20260506050610 | 51 | 227 | 0.9 | 1.7 | 0.01 | 0.43 | 0.09 | 98 | 1011.2 |
| 20260506050529 | 51 | 227 | 0.9 | 1.7 | 0.01 | 0.43 | 0.09 | 97 | 1011.2 |
| 20260506050352 | 51 | 242 | 0.0 | 1.7 | 0.01 | 0.43 | 0.09 | 97 | 1011.3 |
| 20260506050119 | 51 | 159 | 0.0 | 1.7 | 0.01 | 0.43 | 0.09 | 98 | 1011.2 |
| 20260506045052 | 51 | 313 | 0.9 | 2.6 | 0.01 | 0.44 | 0.09 | 98 | 1011.4 |
| 20260506044929 | 51 | 313 | 0.9 | 2.6 | 0.01 | 0.44 | 0.09 | 97 | 1011.5 |
| 20260506044721 | 51 | 232 | 0.9 | 2.6 | 0.01 | 0.44 | 0.09 | 97 | 1011.5 |
| 20260506044602 | 51 | 211 | 0.9 | 1.7 | 0.01 | 0.44 | 0.09 | 97 | 1011.4 |
| 20260506044511 | 51 | 211 | 0.9 | 1.7 | 0.01 | 0.44 | 0.09 | 97 | 1011.5 |
| 20260506044342 | 51 | 228 | 0.9 | 1.7 | 0.01 | 0.44 | 0.09 | 97 | 1011.5 |
| 20260506044135 | 51 | 265 | 0.9 | 1.7 | 0.01 | 0.44 | 0.09 | 97 | 1011.5 |
| 20260506044105 | 51 | 229 | 0.9 | 1.7 | 0.01 | 0.44 | 0.09 | 97 | 1011.5 |
| 20260506043957 | 51 | 180 | 0.9 | 0.9 | 0.01 | 0.44 | 0.09 | 97 | 1011.6 |
| 20260506043827 | 51 | 180 | 0.9 | 0.9 | 0.02 | 0.44 | 0.09 | 97 | 1011.5 |
| 20260506043516 | 58 | 254 | 1.7 | 7.8 | 0.02 | 0.49 | 0.39 | 78 | 1012.2 |
| 20260506043457 | 51 | 180 | 0.9 | 0.9 | 0.02 | 0.44 | 0.09 | 97 | 1011.5 |
| 20260506043337 | 51 | 180 | 0.9 | 0.9 | 0.02 | 0.44 | 0.09 | 97 | 1011.3 |
| 20260506043118 | 51 | 180 | 0.0 | 0.9 | 0.02 | 0.44 | 0.09 | 97 | 1011.3 |
| 20260506043027 | 51 | 225 | 0.0 | 0.0 | 0.02 | 0.44 | 0.09 | 97 | 1011.2 |
| 20260506042847 | 51 | 225 | 0.0 | 0.9 | 0.01 | 0.43 | 0.09 | 97 | 1011.3 |
| 20260506042506 | 51 | 225 | 0.0 | 0.9 | 0.01 | 0.43 | 0.09 | 97 | 1011.3 |
| 20260506042409 | 51 | 225 | 0.0 | 0.9 | 0.01 | 0.44 | 0.09 | 97 | 1011.4 |
| 20260506042225 | 51 | 225 | 0.0 | 0.9 | 0.01 | 0.44 | 0.09 | 97 | 1011.5 |
| 20260506042117 | 51 | 225 | 0.0 | 0.9 | 0.01 | 0.44 | 0.09 | 97 | 1011.4 |
| 20260506041929 | 51 | 239 | 0.0 | 0.9 | 0.01 | 0.44 | 0.09 | 97 | 1011.5 |
| 20260506041559 | 51 | 238 | 0.0 | 0.9 | 0.01 | 0.44 | 0.09 | 97 | 1011.6 |
| 20260506041447 | 51 | 142 | 0.0 | 0.9 | 0.01 | 0.44 | 0.09 | 97 | 1011.7 |
| 20260506041247 | 51 | 142 | 0.0 | 0.9 | 0.01 | 0.44 | 0.09 | 97 | 1011.6 |
| 20260506041143 | 51 | 142 | 0.0 | 0.9 | 0.01 | 0.44 | 0.09 | 97 | 1011.6 |
| 20260506041010 | 51 | 139 | 0.0 | 0.9 | 0.01 | 0.44 | 0.09 | 97 | 1011.7 |
| 20260506040932 | 51 | 249 | 0.0 | 0.0 | 0.01 | 0.44 | 0.09 | 97 | 1011.6 |
| 20260506040840 | 51 | 249 | 0.0 | 0.0 | 0.01 | 0.44 | 0.09 | 97 | 1011.7 |
| 20260506040410 | 51 | 249 | 0.0 | 0.0 | 0.01 | 0.44 | 0.09 | 97 | 1011.7 |
| 20260506035930 | 51 | 249 | 0.0 | 0.0 | 0.02 | 0.44 | 0.09 | 97 | 1011.8 |
| 20260506035908 | 51 | 249 | 0.0 | 0.0 | 0.02 | 0.44 | 0.09 | 97 | 1011.7 |
| 20260506035821 | 51 | 249 | 0.0 | 0.0 | 0.02 | 0.44 | 0.09 | 97 | 1011.8 |
| 20260506035728 | 51 | 249 | 0.0 | 0.0 | 0.02 | 0.45 | 0.09 | 97 | 1011.7 |
| 20260506035554 | 51 | 249 | 0.0 | 0.0 | 0.02 | 0.45 | 0.09 | 97 | 1011.8 |
| 20260506035522 | 51 | 249 | 0.0 | 0.0 | 0.02 | 0.45 | 0.09 | 97 | 1011.7 |
| 20260506035440 | 51 | 249 | 0.0 | 0.9 | 0.02 | 0.45 | 0.09 | 97 | 1011.7 |
| 20260506035134 | 51 | 249 | 0.0 | 1.7 | 0.02 | 0.45 | 0.09 | 97 | 1011.8 |
| 20260506035045 | 51 | 249 | 0.0 | 1.7 | 0.02 | 0.45 | 0.09 | 97 | 1011.8 |
| 20260506035005 | 51 | 249 | 0.0 | 1.7 | 0.02 | 0.45 | 0.09 | 97 | 1011.8 |
| 20260506034936 | 51 | 249 | 0.0 | 1.7 | 0.02 | 0.45 | 0.09 | 97 | 1011.8 |
| 20260506034859 | 51 | 249 | 0.0 | 2.6 | 0.02 | 0.45 | 0.09 | 97 | 1011.9 |
| 20260506034750 | 51 | 250 | 0.9 | 2.6 | 0.01 | 0.44 | 0.09 | 97 | 1012.0 |
| 20260506034612 | 51 | 243 | 0.9 | 2.6 | 0.01 | 0.44 | 0.08 | 97 | 1011.9 |
| 20260506034600 | 51 | 244 | 0.9 | 2.6 | 0.01 | 0.44 | 0.08 | 97 | 1011.9 |
| 20260506034412 | 51 | 267 | 0.9 | 2.6 | 0.01 | 0.44 | 0.08 | 97 | 1011.9 |
| 20260506034251 | 51 | 264 | 1.7 | 2.6 | 0.01 | 0.44 | 0.08 | 96 | 1012.0 |
| 20260506034154 | 51 | 251 | 0.9 | 2.6 | 0.01 | 0.44 | 0.08 | 97 | 1011.9 |
| 20260506034054 | 51 | 260 | 0.9 | 2.6 | 0.01 | 0.44 | 0.08 | 97 | 1011.9 |
| 20260506033933 | 51 | 237 | 0.0 | 2.6 | 0.01 | 0.44 | 0.08 | 96 | 1011.9 |
| 20260506033815 | 51 | 239 | 0.9 | 2.6 | 0.01 | 0.44 | 0.08 | 96 | 1012.0 |
| 20260506033634 | 51 | 207 | 0.9 | 5.2 | 0.01 | 0.44 | 0.08 | 96 | 1012.0 |
| 20260506033511 | 51 | 219 | 1.7 | 6.1 | 0.01 | 0.45 | 0.08 | 96 | 1011.9 |
| 20260506033425 | 51 | 216 | 0.9 | 6.1 | 0.01 | 0.45 | 0.08 | 96 | 1012.0 |
| 20260506032617 | 51 | 238 | 3.5 | 6.1 | 0.02 | 0.45 | 0.08 | 96 | 1012.1 |
| 20260506032416 | 51 | 257 | 2.6 | 6.1 | 0.02 | 0.45 | 0.08 | 96 | 1012.1 |
| 20260506032229 | 51 | 248 | 4.3 | 6.1 | 0.02 | 0.45 | 0.08 | 96 | 1012.3 |
| 20260506032139 | 51 | 284 | 4.3 | 6.1 | 0.02 | 0.45 | 0.08 | 96 | 1012.2 |
| 20260506032020 | 51 | 296 | 2.6 | 7.0 | 0.02 | 0.45 | 0.08 | 96 | 1012.3 |
| 20260506031846 | 51 | 304 | 2.6 | 7.0 | 0.02 | 0.45 | 0.08 | 96 | 1012.2 |
| 20260506031712 | 51 | 277 | 3.5 | 7.0 | 0.02 | 0.45 | 0.08 | 96 | 1012.3 |
| 20260506031656 | 51 | 288 | 3.5 | 7.0 | 0.02 | 0.45 | 0.08 | 96 | 1012.3 |
| 20260506031507 | 51 | 313 | 2.6 | 7.0 | 0.02 | 0.45 | 0.08 | 96 | 1012.3 |
| 20260506031337 | 51 | 295 | 3.5 | 7.0 | 0.02 | 0.45 | 0.08 | 96 | 1012.3 |
| 20260506030923 | 51 | 284 | 2.6 | 6.1 | 0.02 | 0.45 | 0.08 | 96 | 1012.3 |
| 20260506030739 | 51 | 313 | 2.6 | 6.1 | 0.01 | 0.44 | 0.07 | 96 | 1012.2 |
| 20260506030618 | 51 | 313 | 4.3 | 6.1 | 0.01 | 0.44 | 0.07 | 96 | 1012.2 |
| 20260506030601 | 51 | 311 | 4.3 | 6.1 | 0.01 | 0.44 | 0.07 | 96 | 1012.1 |
| 20260506030412 | 51 | 282 | 3.5 | 6.1 | 0.01 | 0.44 | 0.07 | 96 | 1012.0 |
| 20260506030236 | 51 | 276 | 1.7 | 4.3 | 0.01 | 0.45 | 0.07 | 96 | 1012.0 |
| 20260506030144 | 51 | 247 | 1.7 | 4.3 | 0.01 | 0.45 | 0.07 | 96 | 1012.0 |
| 20260506025649 | 51 | 215 | 1.7 | 4.3 | 0.01 | 0.45 | 0.07 | 96 | 1011.9 |
| 20260506025522 | 51 | 244 | 1.7 | 4.3 | 0.01 | 0.45 | 0.07 | 96 | 1011.9 |
| 20260506025111 | 51 | 260 | 1.7 | 4.3 | 0.02 | 0.45 | 0.07 | 96 | 1011.8 |
| 20260506024931 | 51 | 248 | 1.7 | 4.3 | 0.02 | 0.45 | 0.07 | 96 | 1011.9 |
| 20260506024843 | 51 | 252 | 2.6 | 4.3 | 0.02 | 0.45 | 0.07 | 96 | 1011.9 |
| 20260506024740 | 51 | 243 | 2.6 | 4.3 | 0.02 | 0.45 | 0.07 | 96 | 1011.9 |
| 20260506024556 | 51 | 237 | 0.9 | 3.5 | 0.02 | 0.45 | 0.07 | 96 | 1011.9 |
| 20260506024352 | 51 | 222 | 1.7 | 2.6 | 0.02 | 0.45 | 0.07 | 96 | 1011.9 |
| 20260506024231 | 51 | 238 | 0.9 | 2.6 | 0.02 | 0.45 | 0.07 | 96 | 1011.9 |
| 20260506024105 | 51 | 225 | 0.9 | 2.6 | 0.02 | 0.45 | 0.07 | 96 | 1011.9 |
| 20260506024019 | 51 | 225 | 1.7 | 2.6 | 0.02 | 0.45 | 0.07 | 96 | 1011.9 |
| 20260506023928 | 51 | 225 | 1.7 | 2.6 | 0.02 | 0.45 | 0.07 | 96 | 1012.0 |
| 20260506023806 | 51 | 219 | 1.7 | 2.6 | 0.02 | 0.45 | 0.07 | 96 | 1011.9 |
| 20260506023608 | 51 | 238 | 1.7 | 2.6 | 0.02 | 0.45 | 0.07 | 96 | 1011.9 |
| 20260506023454 | 51 | 221 | 1.7 | 2.6 | 0.02 | 0.46 | 0.07 | 96 | 1011.8 |
| 20260506023313 | 51 | 255 | 1.7 | 2.6 | 0.02 | 0.46 | 0.07 | 96 | 1011.9 |
| 20260506023214 | 51 | 216 | 1.7 | 2.6 | 0.02 | 0.46 | 0.07 | 96 | 1011.8 |
| 20260506023111 | 51 | 222 | 1.7 | 2.6 | 0.02 | 0.46 | 0.07 | 96 | 1011.9 |
| 20260506022933 | 51 | 207 | 1.7 | 2.6 | 0.01 | 0.45 | 0.06 | 96 | 1011.9 |
| 20260506022746 | 51 | 232 | 1.7 | 2.6 | 0.01 | 0.45 | 0.06 | 96 | 1011.9 |
| 20260506022731 | 51 | 291 | 1.7 | 2.6 | 0.01 | 0.45 | 0.06 | 96 | 1011.9 |
| 20260506022602 | 51 | 260 | 1.7 | 2.6 | 0.02 | 0.45 | 0.06 | 96 | 1011.9 |
| 20260506022432 | 51 | 230 | 0.9 | 2.6 | 0.02 | 0.45 | 0.06 | 96 | 1011.9 |
| 20260506022340 | 51 | 229 | 0.0 | 2.6 | 0.02 | 0.45 | 0.06 | 96 | 1011.8 |
| 20260506022245 | 51 | 223 | 0.0 | 2.6 | 0.02 | 0.45 | 0.06 | 96 | 1011.8 |
| 20260506022151 | 51 | 223 | 1.7 | 3.5 | 0.02 | 0.45 | 0.06 | 96 | 1011.8 |
| 20260506021433 | 51 | 220 | 0.9 | 3.5 | 0.02 | 0.45 | 0.06 | 96 | 1011.8 |
| 20260506021308 | 51 | 220 | 1.7 | 3.5 | 0.02 | 0.45 | 0.06 | 96 | 1011.8 |
| 20260506021228 | 51 | 220 | 1.7 | 3.5 | 0.02 | 0.45 | 0.06 | 96 | 1011.8 |
| 20260506021134 | 51 | 244 | 1.7 | 3.5 | 0.02 | 0.45 | 0.06 | 96 | 1011.7 |
| 20260506021000 | 51 | 228 | 0.9 | 1.7 | 0.02 | 0.45 | 0.06 | 96 | 1011.8 |
| 20260506020758 | 51 | 232 | 0.9 | 1.7 | 0.02 | 0.45 | 0.06 | 96 | 1011.8 |
| 20260506020652 | 51 | 232 | 0.9 | 1.7 | 0.02 | 0.46 | 0.06 | 96 | 1011.7 |
| 20260506015638 | 51 | 217 | 0.9 | 2.6 | 0.02 | 0.46 | 0.06 | 96 | 1011.7 |
| 20260506015454 | 51 | 234 | 0.9 | 2.6 | 0.02 | 0.46 | 0.06 | 96 | 1011.7 |
| 20260506015332 | 51 | 224 | 0.9 | 2.6 | 0.02 | 0.45 | 0.06 | 96 | 1011.8 |
| 20260506015221 | 51 | 224 | 1.7 | 2.6 | 0.02 | 0.45 | 0.06 | 96 | 1011.8 |
| 20260506014832 | 51 | 223 | 1.7 | 2.6 | 0.02 | 0.45 | 0.06 | 96 | 1011.9 |
| 20260506014110 | 51 | 227 | 1.7 | 2.6 | 0.02 | 0.45 | 0.06 | 96 | 1011.9 |
| 20260506013941 | 51 | 238 | 1.7 | 2.6 | 0.02 | 0.45 | 0.06 | 96 | 1012.0 |
| 20260506013815 | 51 | 226 | 1.7 | 2.6 | 0.02 | 0.45 | 0.06 | 96 | 1011.9 |
| 20260506013733 | 51 | 226 | 1.7 | 2.6 | 0.02 | 0.45 | 0.06 | 96 | 1012.0 |
| 20260506013612 | 51 | 235 | 0.9 | 2.6 | 0.02 | 0.45 | 0.06 | 96 | 1012.0 |
| 20260506013443 | 51 | 219 | 1.7 | 2.6 | 0.02 | 0.45 | 0.06 | 96 | 1012.0 |
| 20260506013027 | 51 | 233 | 1.7 | 2.6 | 0.02 | 0.46 | 0.06 | 96 | 1012.0 |
| 20260506012431 | 51 | 225 | 0.9 | 2.6 | 0.02 | 0.46 | 0.06 | 96 | 1012.1 |
| 20260506012400 | 51 | 240 | 0.9 | 2.6 | 0.02 | 0.46 | 0.06 | 96 | 1012.0 |
| 20260506012236 | 51 | 221 | 1.7 | 2.6 | 0.02 | 0.46 | 0.06 | 96 | 1012.0 |
| 20260506012112 | 51 | 239 | 1.7 | 2.6 | 0.02 | 0.46 | 0.06 | 96 | 1012.1 |
| 20260506011917 | 51 | 225 | 1.7 | 2.6 | 0.02 | 0.46 | 0.06 | 96 | 1012.0 |
| 20260506011849 | 51 | 236 | 1.7 | 2.6 | 0.02 | 0.46 | 0.06 | 96 | 1012.0 |
| 20260506011705 | 51 | 221 | 0.9 | 3.5 | 0.02 | 0.45 | 0.06 | 96 | 1012.0 |
| 20260506011511 | 51 | 228 | 0.9 | 3.5 | 0.02 | 0.45 | 0.05 | 96 | 1012.0 |
| 20260506011442 | 51 | 229 | 0.9 | 3.5 | 0.02 | 0.45 | 0.05 | 96 | 1012.0 |
| 20260506011353 | 51 | 257 | 1.7 | 3.5 | 0.02 | 0.45 | 0.05 | 96 | 1012.1 |
| 20260506011257 | 51 | 229 | 1.7 | 3.5 | 0.02 | 0.45 | 0.05 | 96 | 1012.1 |
| 20260506011115 | 51 | 225 | 1.7 | 3.5 | 0.02 | 0.45 | 0.05 | 96 | 1012.1 |
| 20260506010944 | 51 | 223 | 1.7 | 2.6 | 0.02 | 0.45 | 0.05 | 96 | 1012.2 |
| 20260506010758 | 51 | 219 | 1.7 | 2.6 | 0.02 | 0.45 | 0.05 | 96 | 1012.2 |
| 20260506010727 | 51 | 234 | 1.7 | 2.6 | 0.02 | 0.45 | 0.05 | 96 | 1012.3 |
| 20260506010630 | 52 | 224 | 0.9 | 4.3 | 0.02 | 0.45 | 0.05 | 96 | 1012.2 |
| 20260506010142 | 52 | 244 | 1.7 | 4.3 | 0.02 | 0.46 | 0.05 | 96 | 1012.3 |
| 20260506005743 | 52 | 263 | 1.7 | 4.3 | 0.02 | 0.46 | 0.05 | 96 | 1012.3 |
| 20260506005554 | 52 | 211 | 1.7 | 4.3 | 0.02 | 0.46 | 0.05 | 96 | 1012.3 |
| 20260506005524 | 52 | 236 | 1.7 | 4.3 | 0.02 | 0.46 | 0.05 | 96 | 1012.3 |
| 20260506005405 | 52 | 233 | 0.9 | 2.6 | 0.02 | 0.46 | 0.05 | 96 | 1012.4 |
| 20260506005227 | 52 | 222 | 0.9 | 2.6 | 0.02 | 0.46 | 0.05 | 96 | 1012.3 |
| 20260506005105 | 52 | 255 | 0.9 | 2.6 | 0.02 | 0.46 | 0.05 | 96 | 1012.3 |
| 20260506005036 | 52 | 247 | 0.9 | 2.6 | 0.02 | 0.45 | 0.05 | 96 | 1012.4 |
| 20260506004907 | 52 | 237 | 0.9 | 2.6 | 0.02 | 0.45 | 0.04 | 96 | 1012.3 |
| 20260506004739 | 52 | 244 | 0.9 | 2.6 | 0.02 | 0.45 | 0.04 | 96 | 1012.4 |
| 20260506004704 | 52 | 225 | 0.9 | 2.6 | 0.02 | 0.45 | 0.04 | 96 | 1012.4 |
| 20260506004609 | 52 | 238 | 1.7 | 2.6 | 0.02 | 0.45 | 0.04 | 96 | 1012.4 |
| 20260506004448 | 52 | 238 | 1.7 | 2.6 | 0.02 | 0.45 | 0.04 | 96 | 1012.4 |
| 20260506004325 | 52 | 222 | 1.7 | 2.6 | 0.02 | 0.45 | 0.04 | 96 | 1012.4 |
| 20260506004245 | 52 | 231 | 0.9 | 2.6 | 0.02 | 0.45 | 0.04 | 96 | 1012.4 |
| 20260506003725 | 52 | 223 | 1.7 | 2.6 | 0.02 | 0.45 | 0.04 | 96 | 1012.4 |
| 20260506003709 | 52 | 223 | 1.7 | 2.6 | 0.02 | 0.45 | 0.04 | 96 | 1012.5 |
| 20260506003554 | 52 | 217 | 1.7 | 3.5 | 0.02 | 0.46 | 0.04 | 96 | 1012.5 |
| 20260506003415 | 52 | 221 | 0.9 | 3.5 | 0.01 | 0.45 | 0.04 | 96 | 1012.5 |
| 20260506003048 | 52 | 216 | 2.6 | 7.0 | 0.01 | 0.45 | 0.03 | 96 | 1012.5 |
| 20260506002959 | 52 | 216 | 2.6 | 7.0 | 0.02 | 0.45 | 0.03 | 96 | 1012.5 |
| 20260506002855 | 52 | 216 | 2.6 | 7.8 | 0.02 | 0.45 | 0.03 | 96 | 1012.6 |
| 20260506002746 | 52 | 236 | 1.7 | 7.8 | 0.02 | 0.45 | 0.03 | 96 | 1012.6 |
| 20260506002610 | 52 | 239 | 2.6 | 7.8 | 0.02 | 0.45 | 0.03 | 96 | 1012.6 |
| 20260506002506 | 52 | 247 | 2.6 | 7.8 | 0.02 | 0.45 | 0.03 | 96 | 1012.6 |
| 20260506002024 | 52 | 265 | 2.6 | 7.0 | 0.02 | 0.45 | 0.03 | 96 | 1012.7 |
| 20260506001838 | 52 | 248 | 2.6 | 5.2 | 0.02 | 0.45 | 0.03 | 96 | 1012.7 |
| 20260506001440 | 52 | 246 | 1.7 | 3.5 | 0.02 | 0.45 | 0.03 | 96 | 1012.6 |
| 20260506000929 | 52 | 232 | 1.7 | 3.5 | 0.02 | 0.45 | 0.03 | 96 | 1012.7 |
| 20260506000839 | 52 | 244 | 1.7 | 3.5 | 0.02 | 0.45 | 0.03 | 96 | 1012.7 |
| 20260506000702 | 52 | 236 | 2.6 | 3.5 | 0.02 | 0.45 | 0.03 | 96 | 1012.7 |
| 20260506000510 | 52 | 264 | 1.7 | 3.5 | 0.02 | 0.45 | 0.03 | 96 | 1012.8 |
| 20260506000457 | 52 | 282 | 1.7 | 3.5 | 0.02 | 0.45 | 0.03 | 96 | 1012.8 |
| 20260506000330 | 52 | 222 | 1.7 | 3.5 | 0.02 | 0.46 | 0.03 | 96 | 1012.6 |
| 20260506000153 | 52 | 236 | 1.7 | 3.5 | 0.02 | 0.46 | 0.03 | 96 | 1012.7 |
| 20260506000057 | 52 | 277 | 1.7 | 3.5 | 0.02 | 0.46 | 0.03 | 96 | 1012.8 |
| 20260505235630 | 52 | 222 | 1.7 | 2.6 | 0.02 | 0.45 | 0.03 | 96 | 1012.7 |
| 20260505235342 | 52 | 228 | 1.7 | 2.6 | 0.02 | 0.45 | 0.02 | 96 | 1012.8 |
| 20260505235329 | 52 | 229 | 1.7 | 2.6 | 0.02 | 0.45 | 0.02 | 96 | 1012.8 |
| 20260505235210 | 52 | 281 | 1.7 | 2.6 | 0.02 | 0.45 | 0.02 | 96 | 1012.8 |
| 20260505235040 | 52 | 235 | 1.7 | 2.6 | 0.02 | 0.45 | 0.02 | 96 | 1012.9 |
| 20260505234856 | 52 | 231 | 1.7 | 2.6 | 0.02 | 0.45 | 0.02 | 96 | 1012.9 |
| 20260505234810 | 52 | 225 | 0.9 | 2.6 | 0.02 | 0.45 | 0.02 | 96 | 1012.8 |
| 20260505234637 | 52 | 215 | 0.9 | 1.7 | 0.02 | 0.45 | 0.02 | 96 | 1012.8 |
| 20260505234512 | 52 | 222 | 0.9 | 1.7 | 0.02 | 0.45 | 0.02 | 96 | 1012.8 |
| 20260505234452 | 52 | 222 | 0.0 | 1.7 | 0.02 | 0.45 | 0.02 | 96 | 1012.8 |
| 20260505234337 | 52 | 223 | 0.0 | 1.7 | 0.02 | 0.45 | 0.02 | 95 | 1012.8 |
| 20260505234228 | 52 | 223 | 0.9 | 1.7 | 0.02 | 0.45 | 0.02 | 96 | 1012.7 |
| 20260505233528 | 52 | 223 | 0.0 | 1.7 | 0.02 | 0.45 | 0.02 | 96 | 1012.7 |
| 20260505233304 | 52 | 223 | 0.9 | 1.7 | 0.02 | 0.46 | 0.02 | 96 | 1012.7 |
| 20260505233252 | 52 | 223 | 0.9 | 1.7 | 0.02 | 0.46 | 0.02 | 96 | 1012.8 |
| 20260505233149 | 52 | 234 | 0.9 | 1.7 | 0.02 | 0.46 | 0.02 | 95 | 1012.8 |
| 20260505233024 | 52 | 236 | 0.9 | 1.7 | 0.02 | 0.46 | 0.02 | 95 | 1012.8 |
| 20260505232837 | 52 | 252 | 0.9 | 1.7 | 0.02 | 0.46 | 0.02 | 95 | 1012.7 |
| 20260505232414 | 53 | 226 | 0.9 | 1.7 | 0.02 | 0.45 | 0.02 | 95 | 1012.7 |
| 20260505232138 | 53 | 226 | 0.9 | 1.7 | 0.02 | 0.45 | 0.02 | 95 | 1012.8 |
| 20260505232122 | 53 | 221 | 0.9 | 1.7 | 0.02 | 0.45 | 0.02 | 95 | 1012.7 |
| 20260505232006 | 53 | 219 | 0.9 | 1.7 | 0.02 | 0.45 | 0.02 | 95 | 1012.6 |
| 20260505231740 | 53 | 219 | 0.0 | 2.6 | 0.02 | 0.45 | 0.02 | 95 | 1012.7 |
| 20260505231638 | 53 | 219 | 0.9 | 2.6 | 0.02 | 0.45 | 0.02 | 95 | 1012.6 |
| 20260505231550 | 53 | 219 | 0.9 | 2.6 | 0.02 | 0.45 | 0.02 | 95 | 1012.7 |
| 20260505231330 | 53 | 219 | 1.7 | 2.6 | 0.02 | 0.45 | 0.02 | 95 | 1012.7 |
| 20260505231306 | 53 | 219 | 1.7 | 2.6 | 0.02 | 0.45 | 0.02 | 95 | 1012.7 |
| 20260505231206 | 53 | 219 | 1.7 | 2.6 | 0.02 | 0.45 | 0.02 | 95 | 1012.7 |
| 20260505231007 | 53 | 226 | 0.9 | 2.6 | 0.02 | 0.46 | 0.02 | 95 | 1012.6 |
| 20260505230942 | 53 | 239 | 0.9 | 2.6 | 0.02 | 0.46 | 0.02 | 95 | 1012.7 |
| 20260505230836 | 53 | 209 | 0.9 | 2.6 | 0.02 | 0.46 | 0.02 | 95 | 1012.8 |
| 20260505230711 | 53 | 202 | 1.7 | 2.6 | 0.02 | 0.46 | 0.02 | 95 | 1012.8 |
| 20260505230607 | 53 | 226 | 1.7 | 2.6 | 0.02 | 0.46 | 0.02 | 95 | 1012.8 |
| 20260505230538 | 53 | 236 | 1.7 | 2.6 | 0.02 | 0.46 | 0.02 | 95 | 1012.9 |
| 20260505230006 | 53 | 263 | 1.7 | 2.6 | 0.02 | 0.46 | 0.02 | 95 | 1012.9 |
| 20260505225937 | 53 | 233 | 0.9 | 2.6 | 0.02 | 0.46 | 0.02 | 95 | 1012.9 |
| 20260505225509 | 53 | 221 | 0.9 | 2.6 | 0.02 | 0.45 | 0.01 | 95 | 1012.8 |
| 20260505225305 | 53 | 221 | 1.7 | 2.6 | 0.02 | 0.45 | 0.01 | 95 | 1012.8 |
| 20260505225240 | 53 | 221 | 1.7 | 2.6 | 0.02 | 0.45 | 0.01 | 95 | 1012.9 |
| 20260505225141 | 53 | 221 | 1.7 | 2.6 | 0.02 | 0.45 | 0.01 | 95 | 1012.7 |
| 20260505224923 | 53 | 227 | 0.9 | 2.6 | 0.02 | 0.45 | 0.01 | 95 | 1012.8 |
| 20260505224854 | 53 | 227 | 1.7 | 2.6 | 0.02 | 0.45 | 0.01 | 95 | 1012.9 |
| 20260505224733 | 53 | 231 | 0.9 | 1.7 | 0.02 | 0.45 | 0.01 | 95 | 1012.9 |
| 20260505224615 | 53 | 223 | 1.7 | 1.7 | 0.02 | 0.45 | 0.01 | 95 | 1012.9 |
| 20260505224449 | 53 | 229 | 0.9 | 1.7 | 0.02 | 0.46 | 0.01 | 95 | 1012.9 |
| 20260505224414 | 53 | 229 | 0.9 | 1.7 | 0.02 | 0.46 | 0.01 | 95 | 1012.8 |
| 20260505224305 | 53 | 229 | 0.9 | 1.7 | 0.02 | 0.46 | 0.01 | 95 | 1012.8 |
| 20260505224140 | 53 | 229 | 0.9 | 1.7 | 0.02 | 0.46 | 0.01 | 94 | 1012.9 |
| 20260505224118 | 53 | 229 | 0.9 | 1.7 | 0.02 | 0.46 | 0.01 | 94 | 1012.8 |
| 20260505223652 | 53 | 228 | 0.9 | 1.7 | 0.02 | 0.46 | 0.01 | 94 | 1012.9 |
| 20260505223554 | 53 | 246 | 0.9 | 1.7 | 0.02 | 0.46 | 0.01 | 94 | 1012.9 |
| 20260505223158 | 53 | 225 | 0.9 | 1.7 | 0.02 | 0.46 | 0.01 | 94 | 1012.9 |
| 20260505223021 | 53 | 225 | 0.0 | 1.7 | 0.02 | 0.46 | 0.01 | 94 | 1012.9 |
| 20260505222330 | 53 | 225 | 0.0 | 1.7 | 0.02 | 0.45 | 0.00 | 94 | 1012.9 |
| 20260505222220 | 54 | 225 | 0.9 | 1.7 | 0.02 | 0.45 | 0.00 | 94 | 1012.9 |
| 20260505222141 | 54 | 225 | 0.9 | 1.7 | 0.02 | 0.45 | 0.00 | 94 | 1013.0 |
| 20260505222031 | 54 | 236 | 0.9 | 1.7 | 0.02 | 0.46 | 0.00 | 94 | 1012.9 |
| 20260505221916 | 54 | 239 | 0.0 | 1.7 | 0.02 | 0.46 | 0.00 | 94 | 1013.0 |
| 20260505221859 | 54 | 239 | 0.0 | 1.7 | 0.02 | 0.46 | 0.00 | 94 | 1013.0 |
| 20260505221416 | 54 | 238 | 0.9 | 2.6 | 0.02 | 0.46 | 0.00 | 94 | 1012.9 |
| 20260505221234 | 54 | 248 | 0.9 | 2.6 | 0.02 | 0.46 | 0.00 | 93 | 1012.9 |
| 20260505221206 | 54 | 234 | 0.9 | 2.6 | 0.02 | 0.46 | 0.00 | 93 | 1012.9 |
| 20260505221056 | 54 | 224 | 1.7 | 3.5 | 0.02 | 0.46 | 0.00 | 93 | 1013.0 |
| 20260505220800 | 54 | 251 | 1.7 | 3.5 | 0.02 | 0.46 | 0.00 | 93 | 1012.9 |
| 20260505220723 | 54 | 221 | 1.7 | 3.5 | 0.02 | 0.46 | 0.00 | 93 | 1013.0 |
| 20260505220618 | 54 | 223 | 1.7 | 3.5 | 0.02 | 0.46 | 0.00 | 93 | 1013.0 |
| 20260505220447 | 54 | 219 | 1.7 | 3.5 | 0.02 | 0.46 | 0.00 | 93 | 1013.0 |
| 20260505220300 | 54 | 219 | 1.7 | 3.5 | 0.02 | 0.46 | 0.46 | 93 | 1013.0 |
| 20260505220240 | 54 | 222 | 1.7 | 3.5 | 0.02 | 0.46 | 0.46 | 93 | 1013.0 |
| 20260505220104 | 54 | 223 | 1.7 | 2.6 | 0.02 | 0.46 | 0.46 | 93 | 1013.0 |
| 20260505215828 | 54 | 229 | 0.0 | 1.7 | 0.02 | 0.46 | 0.46 | 93 | 1013.1 |
| 20260505215455 | 54 | 221 | 0.0 | 1.7 | 0.02 | 0.46 | 0.46 | 93 | 1013.1 |
| 20260505215353 | 54 | 221 | 0.9 | 1.7 | 0.02 | 0.46 | 0.45 | 93 | 1013.0 |
| 20260505215150 | 54 | 223 | 0.0 | 1.7 | 0.02 | 0.46 | 0.45 | 93 | 1013.1 |
| 20260505215125 | 54 | 223 | 0.0 | 0.9 | 0.02 | 0.46 | 0.45 | 93 | 1013.1 |
| 20260505215032 | 54 | 242 | 0.0 | 0.0 | 0.02 | 0.46 | 0.45 | 93 | 1013.0 |
| 20260505214841 | 54 | 242 | 0.0 | 0.0 | 0.02 | 0.46 | 0.45 | 93 | 1013.0 |
| 20260505214821 | 54 | 242 | 0.0 | 0.0 | 0.02 | 0.46 | 0.45 | 93 | 1013.0 |
| 20260505214757 | 54 | 242 | 0.0 | 0.0 | 0.02 | 0.46 | 0.45 | 93 | 1013.1 |
| 20260505214655 | 54 | 242 | 0.0 | 0.0 | 0.02 | 0.46 | 0.45 | 93 | 1013.1 |
| 20260505214605 | 54 | 242 | 0.0 | 0.0 | 0.02 | 0.46 | 0.45 | 93 | 1013.0 |
| 20260505214206 | 54 | 242 | 0.0 | 0.0 | 0.02 | 0.46 | 0.45 | 93 | 1013.1 |
| 20260505214114 | 54 | 242 | 0.0 | 0.0 | 0.02 | 0.46 | 0.45 | 93 | 1013.0 |
| 20260505214050 | 54 | 242 | 0.0 | 0.0 | 0.02 | 0.46 | 0.45 | 93 | 1013.2 |
| 20260505214010 | 54 | 242 | 0.0 | 0.0 | 0.02 | 0.46 | 0.45 | 93 | 1013.2 |
| 20260505213834 | 54 | 242 | 0.0 | 0.0 | 0.02 | 0.46 | 0.45 | 92 | 1013.2 |
| 20260505213804 | 54 | 242 | 0.0 | 0.0 | 0.02 | 0.46 | 0.45 | 92 | 1013.2 |
| 20260505213606 | 54 | 242 | 0.0 | 0.0 | 0.02 | 0.46 | 0.45 | 92 | 1013.2 |
| 20260505213430 | 54 | 242 | 0.0 | 0.0 | 0.02 | 0.46 | 0.45 | 92 | 1013.2 |
| 20260505213403 | 54 | 242 | 0.0 | 0.0 | 0.02 | 0.46 | 0.45 | 92 | 1013.2 |
| 20260505213337 | 54 | 242 | 0.0 | 0.0 | 0.02 | 0.46 | 0.44 | 92 | 1013.3 |
| 20260505213214 | 54 | 242 | 0.0 | 0.9 | 0.02 | 0.46 | 0.44 | 92 | 1013.3 |
| 20260505213124 | 54 | 242 | 0.0 | 0.9 | 0.02 | 0.46 | 0.44 | 92 | 1013.3 |
| 20260505213039 | 54 | 242 | 0.0 | 1.7 | 0.02 | 0.46 | 0.44 | 92 | 1013.3 |
| 20260505212952 | 54 | 242 | 0.0 | 1.7 | 0.02 | 0.46 | 0.44 | 92 | 1013.2 |
| 20260505212919 | 54 | 242 | 0.0 | 1.7 | 0.02 | 0.46 | 0.44 | 92 | 1013.2 |
| 20260505212857 | 54 | 242 | 0.0 | 1.7 | 0.02 | 0.46 | 0.44 | 92 | 1013.3 |
| 20260505212420 | 54 | 236 | 0.0 | 1.7 | 0.02 | 0.46 | 0.44 | 92 | 1013.3 |
| 20260505212259 | 54 | 231 | 0.0 | 0.0 | 0.02 | 0.46 | 0.44 | 92 | 1013.3 |
| 20260505211909 | 54 | 231 | 0.0 | 0.0 | 0.02 | 0.46 | 0.44 | 91 | 1013.3 |
| 20260505211547 | 54 | 231 | 0.0 | 0.0 | 0.02 | 0.46 | 0.44 | 91 | 1013.3 |
| 20260505211435 | 54 | 231 | 0.0 | 0.0 | 0.02 | 0.46 | 0.44 | 91 | 1013.3 |
| 20260505211053 | 54 | 231 | 0.0 | 0.0 | 0.02 | 0.46 | 0.44 | 91 | 1013.3 |
| 20260505211016 | 54 | 231 | 0.0 | 0.0 | 0.02 | 0.46 | 0.43 | 91 | 1013.3 |
| 20260505210950 | 54 | 231 | 0.0 | 0.9 | 0.02 | 0.46 | 0.43 | 91 | 1013.4 |
| 20260505210854 | 54 | 231 | 0.0 | 1.7 | 0.02 | 0.46 | 0.43 | 91 | 1013.2 |
| 20260505210807 | 54 | 231 | 0.0 | 1.7 | 0.02 | 0.46 | 0.43 | 91 | 1013.2 |
| 20260505210720 | 54 | 231 | 0.0 | 1.7 | 0.02 | 0.46 | 0.43 | 91 | 1013.2 |
| 20260505210619 | 54 | 231 | 0.9 | 1.7 | 0.02 | 0.46 | 0.43 | 91 | 1013.2 |
| 20260505205913 | 54 | 215 | 0.0 | 0.0 | 0.02 | 0.46 | 0.43 | 91 | 1013.2 |
| 20260505205612 | 54 | 215 | 0.0 | 0.0 | 0.02 | 0.46 | 0.43 | 90 | 1013.2 |
| 20260505205207 | 55 | 215 | 0.0 | 0.0 | 0.02 | 0.46 | 0.43 | 90 | 1013.0 |
| 20260505205125 | 55 | 215 | 0.0 | 0.0 | 0.02 | 0.46 | 0.43 | 90 | 1013.1 |
| 20260505205056 | 55 | 215 | 0.0 | 0.0 | 0.02 | 0.46 | 0.43 | 90 | 1013.2 |
| 20260505204949 | 55 | 215 | 0.0 | 0.0 | 0.02 | 0.47 | 0.43 | 90 | 1013.1 |
| 20260505204909 | 55 | 215 | 0.0 | 0.0 | 0.02 | 0.47 | 0.43 | 90 | 1013.1 |
| 20260505204606 | 55 | 215 | 0.0 | 0.0 | 0.02 | 0.47 | 0.43 | 90 | 1013.2 |
| 20260505204502 | 55 | 215 | 0.0 | 0.0 | 0.02 | 0.46 | 0.43 | 90 | 1013.1 |
| 20260505204147 | 55 | 215 | 0.0 | 0.0 | 0.02 | 0.46 | 0.43 | 90 | 1013.1 |
| 20260505204041 | 55 | 215 | 0.0 | 0.0 | 0.02 | 0.46 | 0.43 | 90 | 1013.1 |
| 20260505203741 | 55 | 215 | 0.0 | 0.0 | 0.02 | 0.46 | 0.43 | 90 | 1013.0 |
| 20260505203702 | 55 | 215 | 0.0 | 0.0 | 0.02 | 0.46 | 0.43 | 90 | 1013.0 |
| 20260505203537 | 55 | 215 | 0.0 | 0.0 | 0.02 | 0.46 | 0.43 | 89 | 1013.0 |
| 20260505203521 | 55 | 215 | 0.0 | 0.0 | 0.02 | 0.46 | 0.43 | 89 | 1012.9 |
| 20260505203158 | 55 | 215 | 0.0 | 0.9 | 0.02 | 0.47 | 0.43 | 89 | 1013.0 |
| 20260505203056 | 55 | 215 | 0.0 | 0.9 | 0.02 | 0.47 | 0.43 | 89 | 1013.0 |
| 20260505202649 | 55 | 215 | 0.0 | 2.6 | 0.02 | 0.47 | 0.43 | 89 | 1012.9 |
| 20260505202636 | 55 | 215 | 0.0 | 2.6 | 0.02 | 0.47 | 0.43 | 89 | 1012.9 |
| 20260505202545 | 55 | 221 | 0.0 | 2.6 | 0.02 | 0.47 | 0.43 | 89 | 1012.9 |
| 20260505202434 | 55 | 221 | 0.0 | 2.6 | 0.02 | 0.47 | 0.43 | 89 | 1012.9 |
| 20260505202349 | 55 | 221 | 0.9 | 2.6 | 0.02 | 0.46 | 0.43 | 89 | 1013.0 |
| 20260505202323 | 55 | 221 | 0.9 | 2.6 | 0.02 | 0.46 | 0.42 | 89 | 1012.8 |
| 20260505202220 | 55 | 245 | 0.0 | 0.9 | 0.02 | 0.46 | 0.42 | 89 | 1012.8 |
| 20260505202107 | 55 | 220 | 0.0 | 0.9 | 0.02 | 0.46 | 0.42 | 89 | 1012.8 |
| 20260505201743 | 55 | 220 | 0.0 | 0.9 | 0.02 | 0.47 | 0.42 | 88 | 1012.7 |
| 20260505201647 | 55 | 220 | 0.0 | 0.9 | 0.02 | 0.47 | 0.42 | 89 | 1012.7 |
| 20260505201536 | 55 | 233 | 0.0 | 1.7 | 0.02 | 0.47 | 0.42 | 89 | 1012.8 |
| 20260505201426 | 55 | 233 | 0.0 | 1.7 | 0.02 | 0.47 | 0.42 | 88 | 1012.8 |
| 20260505201335 | 55 | 233 | 0.0 | 2.6 | 0.02 | 0.47 | 0.42 | 88 | 1012.6 |
| 20260505201319 | 55 | 233 | 0.0 | 2.6 | 0.02 | 0.47 | 0.42 | 88 | 1012.7 |
| 20260505201251 | 55 | 233 | 0.0 | 2.6 | 0.02 | 0.47 | 0.42 | 88 | 1012.7 |
| 20260505201144 | 55 | 233 | 0.0 | 2.6 | 0.02 | 0.47 | 0.42 | 88 | 1012.6 |
| 20260505201043 | 55 | 234 | 0.0 | 2.6 | 0.02 | 0.47 | 0.42 | 88 | 1012.6 |
| 20260505201027 | 55 | 234 | 0.9 | 2.6 | 0.02 | 0.47 | 0.42 | 88 | 1012.6 |
| 20260505200914 | 56 | 234 | 0.0 | 2.6 | 0.02 | 0.47 | 0.42 | 88 | 1012.5 |
| 20260505200741 | 56 | 219 | 0.0 | 0.0 | 0.02 | 0.47 | 0.42 | 87 | 1012.5 |
| 20260505200721 | 56 | 219 | 0.0 | 0.0 | 0.02 | 0.48 | 0.42 | 87 | 1012.6 |
| 20260505200646 | 56 | 219 | 0.0 | 0.9 | 0.02 | 0.47 | 0.42 | 87 | 1012.6 |
| 20260505200233 | 56 | 219 | 0.0 | 0.9 | 0.02 | 0.47 | 0.41 | 87 | 1012.6 |
| 20260505200121 | 56 | 219 | 0.0 | 0.9 | 0.02 | 0.47 | 0.41 | 87 | 1012.4 |
| 20260505200032 | 56 | 219 | 0.0 | 0.9 | 0.02 | 0.47 | 0.41 | 86 | 1012.4 |
| 20260505200008 | 56 | 212 | 0.0 | 0.0 | 0.02 | 0.47 | 0.41 | 86 | 1012.4 |
| 20260505195644 | 56 | 212 | 0.0 | 1.7 | 0.02 | 0.47 | 0.41 | 86 | 1012.4 |
| 20260505195035 | 56 | 212 | 0.0 | 1.7 | 0.02 | 0.48 | 0.41 | 86 | 1012.3 |
| 20260505194955 | 56 | 212 | 0.0 | 1.7 | 0.02 | 0.48 | 0.41 | 86 | 1012.3 |
| 20260505194653 | 56 | 212 | 0.9 | 1.7 | 0.02 | 0.48 | 0.41 | 86 | 1012.3 |
| 20260505194527 | 56 | 212 | 0.0 | 1.7 | 0.02 | 0.48 | 0.41 | 86 | 1012.3 |
| 20260505194203 | 56 | 200 | 0.0 | 1.7 | 0.02 | 0.48 | 0.41 | 85 | 1012.3 |
| 20260505194107 | 56 | 200 | 0.0 | 1.7 | 0.02 | 0.47 | 0.41 | 85 | 1012.3 |
| 20260505193958 | 56 | 200 | 0.0 | 1.7 | 0.02 | 0.47 | 0.40 | 85 | 1012.3 |
| 20260505193021 | 56 | 239 | 0.0 | 0.0 | 0.02 | 0.48 | 0.40 | 84 | 1012.3 |
| 20260505193012 | 56 | 239 | 0.0 | 0.0 | 0.02 | 0.48 | 0.40 | 84 | 1012.3 |
| 20260505192906 | 56 | 239 | 0.0 | 0.0 | 0.02 | 0.48 | 0.40 | 84 | 1012.3 |
| 20260505192756 | 56 | 239 | 0.0 | 0.0 | 0.02 | 0.48 | 0.40 | 84 | 1012.3 |
| 20260505192710 | 56 | 239 | 0.0 | 0.0 | 0.02 | 0.48 | 0.40 | 84 | 1012.2 |
| 20260505192352 | 57 | 239 | 0.0 | 0.0 | 0.02 | 0.48 | 0.40 | 83 | 1012.3 |
| 20260505192311 | 57 | 239 | 0.0 | 0.0 | 0.02 | 0.48 | 0.40 | 83 | 1012.3 |
| 20260505192254 | 57 | 239 | 0.0 | 0.0 | 0.02 | 0.48 | 0.40 | 83 | 1012.2 |
| 20260505191843 | 57 | 239 | 0.0 | 2.6 | 0.02 | 0.48 | 0.40 | 83 | 1012.3 |
| 20260505191531 | 57 | 239 | 0.0 | 6.1 | 0.02 | 0.48 | 0.40 | 82 | 1012.2 |
| 20260505191416 | 57 | 239 | 0.0 | 7.0 | 0.02 | 0.48 | 0.39 | 82 | 1012.2 |
| 20260505191331 | 57 | 239 | 1.7 | 7.0 | 0.02 | 0.48 | 0.39 | 82 | 1012.2 |
| 20260505191307 | 57 | 239 | 1.7 | 7.0 | 0.02 | 0.48 | 0.39 | 82 | 1012.1 |
| 20260505191156 | 57 | 235 | 1.7 | 7.0 | 0.02 | 0.48 | 0.39 | 82 | 1012.2 |
| 20260505190709 | 57 | 223 | 3.5 | 7.0 | 0.02 | 0.48 | 0.39 | 81 | 1012.2 |
| 20260505190642 | 57 | 255 | 2.6 | 7.0 | 0.02 | 0.48 | 0.39 | 81 | 1012.2 |
| 20260505190451 | 57 | 221 | 2.6 | 6.1 | 0.02 | 0.48 | 0.39 | 81 | 1012.1 |
| 20260505190314 | 57 | 210 | 1.7 | 6.1 | 0.02 | 0.48 | 0.39 | 81 | 1012.2 |
| 20260505190243 | 57 | 238 | 1.7 | 6.1 | 0.02 | 0.48 | 0.39 | 81 | 1012.1 |
| 20260505190136 | 57 | 223 | 2.6 | 6.1 | 0.02 | 0.48 | 0.39 | 81 | 1012.1 |
| 20260505185947 | 58 | 230 | 3.5 | 6.1 | 0.02 | 0.48 | 0.39 | 80 | 1012.1 |
| 20260505185825 | 58 | 225 | 3.5 | 6.1 | 0.02 | 0.49 | 0.39 | 80 | 1012.1 |
| 20260505185801 | 58 | 267 | 3.5 | 6.1 | 0.02 | 0.49 | 0.39 | 80 | 1012.1 |
| 20260505185227 | 58 | 232 | 1.7 | 3.5 | 0.02 | 0.49 | 0.39 | 79 | 1012.2 |
| 20260505185141 | 58 | 245 | 1.7 | 3.5 | 0.02 | 0.49 | 0.39 | 79 | 1012.2 |
| 20260505184702 | 58 | 229 | 2.6 | 7.8 | 0.02 | 0.49 | 0.39 | 79 | 1012.2 |
| 20260505184538 | 58 | 232 | 2.6 | 7.8 | 0.02 | 0.49 | 0.39 | 78 | 1012.2 |
| 20260505184139 | 58 | 243 | 2.6 | 10.4 | 0.02 | 0.49 | 0.39 | 78 | 1012.2 |
| 20260505184006 | 58 | 232 | 3.5 | 10.4 | 0.02 | 0.48 | 0.39 | 77 | 1012.2 |
| 20260505183922 | 58 | 250 | 3.5 | 10.4 | 0.02 | 0.48 | 0.39 | 77 | 1012.3 |
| 20260505183822 | 58 | 259 | 4.3 | 10.4 | 0.02 | 0.48 | 0.39 | 77 | 1012.2 |
| 20260505183639 | 58 | 255 | 5.2 | 10.4 | 0.02 | 0.49 | 0.39 | 78 | 1012.2 |
| 20260505183453 | 58 | 222 | 5.2 | 10.4 | 0.02 | 0.49 | 0.39 | 78 | 1012.3 |
| 20260505183434 | 58 | 272 | 4.3 | 10.4 | 0.02 | 0.49 | 0.39 | 78 | 1012.2 |
| 20260505183247 | 58 | 280 | 5.2 | 13.0 | 0.02 | 0.49 | 0.39 | 77 | 1012.3 |
| 20260505183105 | 58 | 275 | 4.3 | 13.0 | 0.02 | 0.49 | 0.39 | 77 | 1012.3 |
| 20260505182716 | 58 | 238 | 4.3 | 13.0 | 0.02 | 0.49 | 0.39 | 77 | 1012.3 |
| 20260505182531 | 59 | 217 | 6.1 | 13.0 | 0.02 | 0.49 | 0.39 | 77 | 1012.3 |
| 20260505182355 | 59 | 240 | 7.8 | 13.0 | 0.02 | 0.49 | 0.39 | 76 | 1012.2 |
| 20260505182332 | 59 | 246 | 7.8 | 13.0 | 0.02 | 0.49 | 0.39 | 76 | 1012.3 |
| 20260505182151 | 59 | 236 | 7.0 | 15.6 | 0.02 | 0.49 | 0.39 | 75 | 1012.3 |
| 20260505182006 | 59 | 261 | 7.0 | 15.6 | 0.02 | 0.49 | 0.39 | 75 | 1012.2 |
| 20260505181924 | 59 | 252 | 7.0 | 15.6 | 0.02 | 0.50 | 0.39 | 74 | 1012.2 |
| 20260505181800 | 59 | 254 | 6.1 | 15.6 | 0.02 | 0.50 | 0.39 | 75 | 1012.2 |
| 20260505181623 | 60 | 244 | 4.3 | 15.6 | 0.02 | 0.50 | 0.39 | 75 | 1012.2 |
| 20260505181305 | 60 | 275 | 8.7 | 15.6 | 0.02 | 0.49 | 0.38 | 74 | 1012.2 |
| 20260505181119 | 60 | 257 | 7.8 | 14.8 | 0.02 | 0.49 | 0.38 | 73 | 1012.2 |
| 20260505180936 | 60 | 254 | 7.0 | 14.8 | 0.02 | 0.49 | 0.38 | 74 | 1012.2 |
| 20260505180857 | 60 | 237 | 8.7 | 14.8 | 0.02 | 0.49 | 0.38 | 74 | 1012.3 |
| 20260505180115 | 60 | 246 | 7.8 | 14.8 | 0.02 | 0.49 | 0.38 | 73 | 1012.1 |
| 20260505180039 | 60 | 244 | 7.8 | 14.8 | 0.02 | 0.49 | 0.38 | 72 | 1012.1 |
| 20260505175902 | 60 | 264 | 7.0 | 14.8 | 0.02 | 0.49 | 0.38 | 72 | 1012.1 |
| 20260505175707 | 60 | 238 | 8.7 | 14.8 | 0.02 | 0.50 | 0.38 | 72 | 1012.1 |
| 20260505175641 | 60 | 225 | 5.2 | 14.8 | 0.02 | 0.50 | 0.38 | 72 | 1012.1 |
| 20260505175524 | 60 | 267 | 5.2 | 15.6 | 0.02 | 0.50 | 0.38 | 75 | 1012.1 |
| 20260505175339 | 60 | 242 | 5.2 | 15.6 | 0.02 | 0.50 | 0.38 | 75 | 1012.2 |
| 20260505175218 | 60 | 257 | 7.8 | 15.6 | 0.02 | 0.50 | 0.38 | 75 | 1012.2 |
| 20260505175145 | 60 | 307 | 7.8 | 15.6 | 0.02 | 0.50 | 0.38 | 75 | 1012.1 |
| 20260505175003 | 60 | 251 | 9.6 | 15.6 | 0.02 | 0.49 | 0.38 | 74 | 1012.1 |
| 20260505174823 | 60 | 259 | 8.7 | 15.6 | 0.02 | 0.49 | 0.37 | 73 | 1012.1 |
| 20260505174750 | 60 | 257 | 7.0 | 15.6 | 0.02 | 0.49 | 0.37 | 74 | 1012.1 |
| 20260505174616 | 60 | 252 | 7.0 | 13.9 | 0.02 | 0.49 | 0.37 | 74 | 1012.1 |
| 20260505174428 | 60 | 266 | 4.3 | 13.0 | 0.02 | 0.49 | 0.37 | 75 | 1012.0 |
| 20260505174309 | 60 | 231 | 5.2 | 13.0 | 0.02 | 0.49 | 0.37 | 75 | 1012.2 |
| 20260505174232 | 60 | 261 | 5.2 | 13.0 | 0.02 | 0.50 | 0.37 | 75 | 1012.0 |
| 20260505174052 | 60 | 238 | 7.0 | 13.0 | 0.02 | 0.50 | 0.37 | 74 | 1012.1 |
| 20260505173613 | 60 | 234 | 4.3 | 14.8 | 0.02 | 0.50 | 0.37 | 73 | 1012.0 |
| 20260505173433 | 60 | 234 | 7.0 | 14.8 | 0.02 | 0.50 | 0.37 | 73 | 1012.1 |
| 20260505173327 | 60 | 262 | 5.2 | 14.8 | 0.02 | 0.50 | 0.37 | 73 | 1012.1 |
| 20260505173242 | 60 | 232 | 5.2 | 14.8 | 0.02 | 0.50 | 0.37 | 73 | 1012.1 |
| 20260505172822 | 60 | 246 | 7.0 | 14.8 | 0.02 | 0.50 | 0.37 | 72 | 1012.0 |
| 20260505172805 | 60 | 248 | 7.0 | 14.8 | 0.02 | 0.50 | 0.37 | 72 | 1012.2 |
| 20260505172626 | 60 | 232 | 7.8 | 14.8 | 0.02 | 0.49 | 0.36 | 72 | 1012.1 |
| 20260505172436 | 61 | 237 | 7.0 | 13.9 | 0.02 | 0.50 | 0.36 | 71 | 1012.1 |
| 20260505172027 | 62 | 224 | 3.5 | 9.6 | 0.02 | 0.50 | 0.36 | 70 | 1012.0 |
| 20260505171450 | 62 | 248 | 4.3 | 9.6 | 0.02 | 0.50 | 0.36 | 73 | 1012.1 |
| 20260505170715 | 62 | 290 | 5.2 | 9.6 | 0.02 | 0.50 | 0.36 | 74 | 1012.2 |
| 20260505170524 | 62 | 245 | 5.2 | 7.8 | 0.02 | 0.49 | 0.35 | 74 | 1012.3 |
| 20260505170343 | 61 | 267 | 4.3 | 9.6 | 0.02 | 0.50 | 0.35 | 74 | 1012.3 |
| 20260505170246 | 61 | 258 | 3.5 | 9.6 | 0.02 | 0.50 | 0.35 | 75 | 1012.3 |
| 20260505170151 | 61 | 273 | 3.5 | 9.6 | 0.02 | 0.50 | 0.35 | 75 | 1012.2 |
| 20260505170017 | 61 | 219 | 4.3 | 9.6 | 0.02 | 0.50 | 0.35 | 74 | 1012.3 |
| 20260505165826 | 61 | 235 | 4.3 | 9.6 | 0.02 | 0.50 | 0.35 | 73 | 1012.3 |
| 20260505165814 | 61 | 259 | 4.3 | 9.6 | 0.02 | 0.50 | 0.35 | 73 | 1012.3 |
| 20260505165635 | 61 | 230 | 7.8 | 10.4 | 0.02 | 0.50 | 0.35 | 72 | 1012.3 |
| 20260505165457 | 61 | 265 | 4.3 | 11.3 | 0.02 | 0.50 | 0.35 | 72 | 1012.4 |
| 20260505165343 | 61 | 294 | 3.5 | 11.3 | 0.02 | 0.50 | 0.35 | 72 | 1012.3 |
| 20260505164741 | 61 | 246 | 6.1 | 13.0 | 0.02 | 0.50 | 0.35 | 71 | 1012.4 |
| 20260505164606 | 61 | 266 | 3.5 | 13.0 | 0.02 | 0.49 | 0.35 | 72 | 1012.4 |
| 20260505164422 | 61 | 235 | 7.8 | 13.0 | 0.02 | 0.50 | 0.35 | 71 | 1012.4 |
| 20260505164319 | 61 | 248 | 8.7 | 13.0 | 0.02 | 0.50 | 0.35 | 70 | 1012.3 |
| 20260505163835 | 62 | 235 | 7.8 | 16.5 | 0.02 | 0.50 | 0.35 | 70 | 1012.3 |
| 20260505163647 | 62 | 257 | 7.8 | 16.5 | 0.02 | 0.50 | 0.35 | 70 | 1012.3 |
| 20260505163639 | 62 | 234 | 7.8 | 16.5 | 0.02 | 0.50 | 0.35 | 70 | 1012.3 |
| 20260505163451 | 62 | 271 | 7.0 | 16.5 | 0.02 | 0.50 | 0.35 | 69 | 1012.4 |
| 20260505163304 | 62 | 239 | 11.3 | 16.5 | 0.02 | 0.50 | 0.35 | 69 | 1012.3 |
| 20260505163204 | 62 | 255 | 9.6 | 16.5 | 0.02 | 0.50 | 0.35 | 69 | 1012.4 |
| 20260505163107 | 62 | 246 | 7.8 | 16.5 | 0.02 | 0.50 | 0.35 | 70 | 1012.3 |
| 20260505162925 | 62 | 258 | 10.4 | 14.8 | 0.02 | 0.50 | 0.35 | 70 | 1012.3 |
| 20260505162744 | 62 | 273 | 9.6 | 13.9 | 0.02 | 0.50 | 0.35 | 70 | 1012.3 |
| 20260505162736 | 62 | 302 | 9.6 | 13.9 | 0.02 | 0.50 | 0.35 | 70 | 1012.3 |
| 20260505162555 | 62 | 258 | 7.0 | 14.8 | 0.02 | 0.50 | 0.35 | 70 | 1012.3 |
| 20260505162416 | 62 | 233 | 5.2 | 14.8 | 0.02 | 0.50 | 0.34 | 71 | 1012.3 |
| 20260505162311 | 62 | 252 | 7.8 | 14.8 | 0.02 | 0.50 | 0.34 | 69 | 1012.3 |
| 20260505162220 | 62 | 278 | 7.8 | 14.8 | 0.02 | 0.50 | 0.34 | 68 | 1012.3 |
| 20260505162034 | 62 | 244 | 7.8 | 14.8 | 0.02 | 0.50 | 0.34 | 68 | 1012.2 |
| 20260505161614 | 62 | 236 | 6.1 | 16.5 | 0.02 | 0.50 | 0.34 | 69 | 1012.2 |
| 20260505161142 | 62 | 267 | 9.6 | 16.5 | 0.02 | 0.50 | 0.34 | 67 | 1012.2 |
| 20260505161047 | 62 | 263 | 10.4 | 16.5 | 0.02 | 0.50 | 0.34 | 67 | 1012.2 |
| 20260505160900 | 62 | 269 | 6.1 | 16.5 | 0.02 | 0.50 | 0.34 | 69 | 1012.2 |
| 20260505160708 | 62 | 279 | 7.8 | 16.5 | 0.02 | 0.50 | 0.34 | 69 | 1012.2 |
| 20260505160533 | 62 | 250 | 4.3 | 10.4 | 0.02 | 0.50 | 0.33 | 71 | 1012.2 |
| 20260505160340 | 61 | 234 | 3.5 | 9.6 | 0.02 | 0.50 | 0.33 | 71 | 1012.1 |
| 20260505160243 | 61 | 230 | 3.5 | 10.4 | 0.02 | 0.50 | 0.33 | 72 | 1012.2 |
| 20260505160153 | 61 | 217 | 3.5 | 10.4 | 0.02 | 0.50 | 0.33 | 73 | 1012.1 |
| 20260505153217 | 61 | 290 | 5.2 | 13.0 | 0.02 | 0.50 | 0.32 | 73 | 1012.2 |
| 20260505153036 | 61 | 238 | 9.6 | 13.0 | 0.03 | 0.50 | 0.32 | 72 | 1012.3 |
| 20260505152623 | 60 | 290 | 7.8 | 13.0 | 0.02 | 0.50 | 0.31 | 74 | 1012.2 |
| 20260505152438 | 60 | 300 | 7.8 | 12.2 | 0.02 | 0.50 | 0.31 | 74 | 1012.2 |
| 20260505151828 | 60 | 295 | 8.7 | 13.0 | 0.02 | 0.50 | 0.31 | 75 | 1012.3 |
| 20260505151223 | 60 | 224 | 8.7 | 13.0 | 0.02 | 0.50 | 0.31 | 74 | 1012.4 |
| 20260505151156 | 60 | 259 | 8.7 | 13.0 | 0.02 | 0.50 | 0.31 | 74 | 1012.3 |
| 20260505151008 | 60 | 269 | 6.1 | 13.0 | 0.03 | 0.50 | 0.31 | 76 | 1012.4 |
| 20260505150824 | 60 | 244 | 8.7 | 13.0 | 0.03 | 0.50 | 0.31 | 75 | 1012.3 |
| 20260505150413 | 61 | 291 | 5.2 | 12.2 | 0.02 | 0.50 | 0.31 | 77 | 1012.3 |
| 20260505140532 | 60 | 313 | 7.8 | 11.3 | 0.02 | 0.50 | 0.28 | 77 | 1012.6 |
| 20260505140349 | 60 | 258 | 5.2 | 9.6 | 0.02 | 0.50 | 0.28 | 79 | 1012.5 |
| 20260505130151 | 57 | 252 | 6.1 | 16.5 | 0.02 | 0.50 | 0.26 | 87 | 1013.0 |
| 20260505124905 | 56 | 288 | 7.0 | 13.9 | 0.02 | 0.50 | 0.25 | 86 | 1013.2 |
| 20260505124705 | 56 | 272 | 6.1 | 13.9 | 0.02 | 0.50 | 0.25 | 87 | 1013.3 |